This is the latest recevied weather packets stored in our database for station/object N0NPO. If no packets are shown the sender has not sent any weather packets the latest 10 day(s).
| Time | Temp. | Humidity | Pressure | Rain* | Wind** | Luminosity | Snow |
|---|---|---|---|---|---|---|---|
| 1778204744 | 14.44° C | 1% | 1012.9 hPa | 0 mm | - | 2 W/m² | - |
| 1778204441 | 14.44° C | 1% | 1012.9 hPa | 0 mm | - | 7 W/m² | - |
| 1778204137 | 14.44° C | 1% | 1013 hPa | 0 mm | - | 12 W/m² | - |
| 1778203834 | 14.44° C | 1% | 1012.9 hPa | 0 mm | - | 13 W/m² | - |
| 1778203531 | 15° C | 1% | 1013 hPa | 0 mm | - | 17 W/m² | - |
| 1778203229 | 15° C | 1% | 1012.7 hPa | 0 mm | - | 18 W/m² | - |
| 1778202927 | 15.56° C | 1% | 1012.9 hPa | 0 mm | - | 22 W/m² | - |
| 1778202624 | 16.11° C | 1% | 1012.7 hPa | 0 mm | - | 26 W/m² | - |
| 1778202320 | 16.11° C | 1% | 1012.7 hPa | 0 mm | - | 32 W/m² | - |
| 1778202018 | 16.67° C | 1% | 1012.6 hPa | 0 mm | - | 34 W/m² | - |
| 1778201714 | 17.22° C | 1% | 1012.7 hPa | 0 mm | - | 46 W/m² | - |
| 1778201411 | 17.78° C | 1% | 1012.6 hPa | 0 mm | - | 66 W/m² | - |
| 1778201107 | 17.78° C | 1% | 1012.7 hPa | 0 mm | - | 84 W/m² | - |
| 1778200804 | 17.78° C | 1% | 1012.7 hPa | 0 mm | - | 95 W/m² | - |
| 1778200501 | 18.33° C | 1% | 1012.9 hPa | 0 mm | - | 105 W/m² | - |
| 1778200198 | 17.78° C | 1% | 1012.7 hPa | 0 mm | - | 124 W/m² | - |
| 1778199894 | 17.78° C | 1% | 1012.9 hPa | 0 mm | - | 144 W/m² | - |
| 1778199590 | 17.78° C | 1% | 1012.6 hPa | 0 mm | - | 114 W/m² | - |
| 1778199287 | 17.78° C | 1% | 1012.7 hPa | 0 mm | - | 143 W/m² | - |
| 1778198984 | 18.33° C | 1% | 1012.7 hPa | 0 mm | - | 169 W/m² | - |
| 1778198679 | 18.33° C | 1% | 1012.5 hPa | 0 mm | - | 154 W/m² | - |
| 1778198376 | 17.78° C | 1% | 1012.6 hPa | 0 mm | - | 170 W/m² | - |
| 1778198073 | 17.22° C | 1% | 1012.7 hPa | 0 mm | - | 172 W/m² | - |
| 1778197771 | 17.22° C | 1% | 1012.9 hPa | 0 mm | - | 204 W/m² | - |
| 1778197467 | 17.78° C | 1% | 1012.9 hPa | 0 mm | - | 201 W/m² | - |
* Rain latest hour (hover to see other rain measurements)
** Current wind speed in m/s (hover to see current wind gust speed)